RYR1LB EBCI-LIRP

Flight info

Callsign RYR1LB
Flight time 1h 18m
Altitude 37000
Route RITAX DCT DIK N852 GTQ DCT NATLI DCT OLBEN Z50 ROTOS DCT SUTED DCT ODINA DCT MIVKI
Aircraft B38M/M-SDE1FGHILORVWXY/HB1

Departure

Time 2026-04-26 09:04
Airport Brussels South Charleroi Airport (EBCI)

Arrival

Time 2026-04-26 10:23
Airport Pisa International Airport (LIRP)
Time Latitude Longitude Altitude Speed Heading
2026-04-26 08:35 50.46854 4.47043 587 ft 0 kts 335°
2026-04-26 08:55 50.46851 4.47044 587 ft 3 kts 335°
2026-04-26 08:56 50.46830 4.47060 587 ft 2 kts 335°
2026-04-26 08:56 50.46812 4.47081 587 ft 4 kts 292°
2026-04-26 08:56 50.46814 4.47116 588 ft 4 kts 244°
2026-04-26 08:56 50.46820 4.47135 588 ft 0 kts 245°
2026-04-26 08:59 50.46810 4.47102 588 ft 8 kts 245°
2026-04-26 09:00 50.46771 4.46965 588 ft 18 kts 245°
2026-04-26 09:00 50.46716 4.46790 590 ft 16 kts 225°
2026-04-26 09:00 50.46639 4.46801 594 ft 10 kts 165°
2026-04-26 09:00 50.46585 4.46728 594 ft 15 kts 244°
2026-04-26 09:01 50.46525 4.46521 592 ft 27 kts 246°
2026-04-26 09:01 50.46441 4.46233 593 ft 30 kts 246°
2026-04-26 09:01 50.46356 4.45939 599 ft 29 kts 245°
2026-04-26 09:01 50.46272 4.45649 601 ft 29 kts 245°
2026-04-26 09:02 50.46186 4.45354 601 ft 30 kts 245°
2026-04-26 09:02 50.46095 4.45044 598 ft 33 kts 245°
2026-04-26 09:02 50.46000 4.44717 599 ft 33 kts 246°
2026-04-26 09:02 50.45895 4.44396 602 ft 34 kts 234°
2026-04-26 09:03 50.45752 4.44115 597 ft 32 kts 233°
2026-04-26 09:03 50.45634 4.44011 596 ft 15 kts 121°
2026-04-26 09:03 50.45660 4.44169 596 ft 22 kts 65°
2026-04-26 09:03 50.45820 4.44720 602 ft 93 kts 65°
2026-04-26 09:04 50.46183 4.45968 603 ft 155 kts 64°
2026-04-26 09:04 50.46665 4.47649 1022 ft 178 kts 65°
2026-04-26 09:04 50.47206 4.49404 1981 ft 176 kts 57°
2026-04-26 09:04 50.48010 4.50897 2818 ft 189 kts 49°
2026-04-26 09:05 50.48946 4.52513 3407 ft 213 kts 48°
2026-04-26 09:05 50.50026 4.54324 3964 ft 239 kts 47°
2026-04-26 09:05 50.51212 4.56293 4621 ft 256 kts 47°
2026-04-26 09:05 50.52444 4.58349 5614 ft 258 kts 49°
2026-04-26 09:06 50.53566 4.60609 6479 ft 266 kts 52°
2026-04-26 09:06 50.54700 4.62946 7334 ft 271 kts 52°
2026-04-26 09:06 50.55854 4.65303 8232 ft 273 kts 51°
2026-04-26 09:06 50.57011 4.67655 9084 ft 277 kts 51°
2026-04-26 09:07 50.58207 4.70080 9912 ft 282 kts 51°
2026-04-26 09:07 50.59430 4.72552 10511 ft 293 kts 51°
2026-04-26 09:07 50.60724 4.75171 10804 ft 313 kts 51°
2026-04-26 09:07 50.62093 4.77944 11211 ft 327 kts 50°
2026-04-26 09:08 50.63497 4.80791 11902 ft 330 kts 51°
2026-04-26 09:08 50.64713 4.83883 12512 ft 338 kts 68°
2026-04-26 09:08 50.65130 4.87511 13197 ft 344 kts 90°
2026-04-26 09:08 50.64643 4.91238 13829 ft 349 kts 112°
2026-04-26 09:09 50.63330 4.94466 14439 ft 354 kts 133°
2026-04-26 09:09 50.61591 4.97240 14961 ft 358 kts 134°
2026-04-26 09:09 50.59853 5.00013 15492 ft 362 kts 135°
2026-04-26 09:09 50.58078 5.02820 16214 ft 363 kts 135°
2026-04-26 09:10 50.56279 5.05653 16741 ft 368 kts 135°
2026-04-26 09:10 50.54456 5.08517 17343 ft 371 kts 135°
2026-04-26 09:10 50.52615 5.11406 17889 ft 375 kts 135°
2026-04-26 09:10 50.50767 5.14301 18514 ft 375 kts 135°
2026-04-26 09:11 50.48909 5.17208 18922 ft 380 kts 135°
2026-04-26 09:11 50.47037 5.20133 19381 ft 381 kts 135°
2026-04-26 09:11 50.45150 5.23078 19824 ft 383 kts 135°
2026-04-26 09:11 50.43249 5.26041 20227 ft 386 kts 135°
2026-04-26 09:12 50.41334 5.29023 20616 ft 390 kts 135°
2026-04-26 09:12 50.39405 5.32022 21032 ft 392 kts 135°
2026-04-26 09:12 50.37464 5.35038 21422 ft 394 kts 135°
2026-04-26 09:12 50.35508 5.38072 21810 ft 397 kts 135°
2026-04-26 09:13 50.33539 5.41123 22160 ft 400 kts 135°
2026-04-26 09:13 50.31555 5.44193 22522 ft 402 kts 135°
2026-04-26 09:13 50.29580 5.47246 22865 ft 405 kts 135°
2026-04-26 09:13 50.27543 5.50390 23155 ft 409 kts 135°
2026-04-26 09:14 50.25524 5.53503 23411 ft 413 kts 136°
2026-04-26 09:14 50.23497 5.56624 23968 ft 408 kts 136°
2026-04-26 09:14 50.21467 5.59744 24238 ft 410 kts 136°
2026-04-26 09:14 50.19428 5.62877 24493 ft 412 kts 136°
2026-04-26 09:15 50.17377 5.66023 24758 ft 414 kts 136°
2026-04-26 09:15 50.15321 5.69173 25022 ft 415 kts 136°
2026-04-26 09:15 50.13252 5.72339 25261 ft 417 kts 136°
2026-04-26 09:15 50.11178 5.75510 25508 ft 419 kts 136°
2026-04-26 09:16 50.09095 5.78690 25732 ft 420 kts 136°
2026-04-26 09:16 50.06989 5.81868 25959 ft 422 kts 137°
2026-04-26 09:16 50.04867 5.85044 26183 ft 423 kts 136°
2026-04-26 09:16 50.02744 5.88223 26384 ft 426 kts 136°
2026-04-26 09:17 50.00625 5.91394 26588 ft 428 kts 136°
2026-04-26 09:17 49.98475 5.94607 26846 ft 429 kts 137°
2026-04-26 09:17 49.96322 5.97820 27149 ft 428 kts 137°
2026-04-26 09:17 49.94166 6.01035 27354 ft 430 kts 137°
2026-04-26 09:18 49.92003 6.04255 27557 ft 432 kts 137°
2026-04-26 09:18 49.89833 6.07482 27763 ft 433 kts 137°
2026-04-26 09:18 49.87650 6.10720 27944 ft 434 kts 138°
2026-04-26 09:18 49.85211 6.13441 28126 ft 432 kts 155°
2026-04-26 09:19 49.82479 6.15352 28294 ft 433 kts 157°
2026-04-26 09:19 49.79724 6.17288 28419 ft 435 kts 157°
2026-04-26 09:19 49.76959 6.19197 28599 ft 436 kts 158°
2026-04-26 09:19 49.74179 6.21092 28748 ft 437 kts 158°
2026-04-26 09:20 49.71391 6.22983 28916 ft 438 kts 158°
2026-04-26 09:20 49.68591 6.24879 29057 ft 439 kts 158°
2026-04-26 09:20 49.65820 6.26751 29196 ft 440 kts 158°
2026-04-26 09:20 49.62994 6.28619 29346 ft 441 kts 159°
2026-04-26 09:21 49.60160 6.30448 29491 ft 442 kts 159°
2026-04-26 09:21 49.57326 6.32282 29715 ft 441 kts 159°
2026-04-26 09:21 49.54493 6.34114 29844 ft 442 kts 159°
2026-04-26 09:21 49.51649 6.35954 29953 ft 444 kts 159°
2026-04-26 09:22 49.48803 6.37792 30118 ft 444 kts 159°
2026-04-26 09:22 49.45971 6.39714 30256 ft 446 kts 157°
2026-04-26 09:22 49.43155 6.41736 30396 ft 447 kts 157°
2026-04-26 09:22 49.40329 6.43748 30525 ft 448 kts 157°
2026-04-26 09:23 49.37505 6.45793 30657 ft 448 kts 158°
2026-04-26 09:23 49.34645 6.47716 30788 ft 449 kts 159°
2026-04-26 09:23 49.31780 6.49631 30913 ft 450 kts 159°
2026-04-26 09:23 49.28903 6.51563 31035 ft 452 kts 159°
2026-04-26 09:24 49.26059 6.53470 31187 ft 453 kts 159°
2026-04-26 09:24 49.23174 6.55404 31339 ft 454 kts 159°
2026-04-26 09:24 49.20279 6.57330 31506 ft 455 kts 159°
2026-04-26 09:24 49.17370 6.59259 31674 ft 456 kts 159°
2026-04-26 09:25 49.14458 6.61187 31837 ft 457 kts 159°
2026-04-26 09:25 49.11534 6.63123 32021 ft 458 kts 159°
2026-04-26 09:25 49.08603 6.65059 32224 ft 458 kts 159°
2026-04-26 09:25 49.05680 6.66989 32467 ft 458 kts 159°
2026-04-26 09:26 49.02744 6.68924 32658 ft 460 kts 159°
2026-04-26 09:26 48.99797 6.70864 32858 ft 462 kts 159°
2026-04-26 09:26 48.96787 6.72542 33065 ft 461 kts 163°
2026-04-26 09:26 48.93752 6.74152 33351 ft 461 kts 163°
2026-04-26 09:27 48.90725 6.75785 33684 ft 461 kts 162°
2026-04-26 09:27 48.87704 6.77426 33997 ft 460 kts 162°
2026-04-26 09:27 48.84694 6.79063 34329 ft 459 kts 162°
2026-04-26 09:27 48.81683 6.80700 34594 ft 459 kts 162°
2026-04-26 09:28 48.78682 6.82328 34847 ft 459 kts 162°
2026-04-26 09:28 48.75675 6.83960 35102 ft 458 kts 162°
2026-04-26 09:28 48.72707 6.85567 35345 ft 458 kts 162°
2026-04-26 09:28 48.69698 6.87194 35579 ft 458 kts 162°
2026-04-26 09:29 48.66695 6.88817 35816 ft 457 kts 162°
2026-04-26 09:29 48.63696 6.90435 36042 ft 457 kts 162°
2026-04-26 09:29 48.60696 6.92051 36251 ft 457 kts 162°
2026-04-26 09:29 48.57708 6.93659 36464 ft 456 kts 162°
2026-04-26 09:30 48.54710 6.95270 36688 ft 456 kts 162°
2026-04-26 09:30 48.51724 6.96873 36924 ft 455 kts 162°
2026-04-26 09:30 48.48785 6.98449 37127 ft 454 kts 162°
2026-04-26 09:30 48.45803 7.00046 37257 ft 455 kts 162°
2026-04-26 09:31 48.42823 7.01639 37226 ft 454 kts 162°
2026-04-26 09:31 48.36881 7.04811 37233 ft 453 kts 162°
2026-04-26 09:32 48.30937 7.07976 37229 ft 453 kts 162°
2026-04-26 09:32 48.24987 7.11137 37232 ft 453 kts 162°
2026-04-26 09:33 48.19042 7.14287 37226 ft 453 kts 163°
2026-04-26 09:33 48.14104 7.16897 37229 ft 452 kts 162°
2026-04-26 09:34 48.08171 7.20032 37237 ft 452 kts 163°
2026-04-26 09:34 48.01261 7.23662 37243 ft 452 kts 163°
2026-04-26 09:35 47.96329 7.26250 37230 ft 451 kts 163°
2026-04-26 09:35 47.90412 7.29348 37231 ft 450 kts 163°
2026-04-26 09:36 47.84501 7.32436 37235 ft 450 kts 163°
2026-04-26 09:36 47.78584 7.35519 37225 ft 450 kts 163°
2026-04-26 09:37 47.72661 7.38598 37226 ft 450 kts 163°
2026-04-26 09:37 47.66742 7.41668 37225 ft 450 kts 163°
2026-04-26 09:38 47.60863 7.44709 37217 ft 450 kts 163°
2026-04-26 09:38 47.54943 7.47766 37203 ft 450 kts 163°
2026-04-26 09:39 47.49029 7.50899 37227 ft 452 kts 158°
2026-04-26 09:39 47.43294 7.54695 37228 ft 452 kts 159°
2026-04-26 09:40 47.37527 7.58404 37219 ft 452 kts 159°
2026-04-26 09:40 47.31798 7.62063 37209 ft 452 kts 159°
2026-04-26 09:41 47.26250 7.66464 37209 ft 454 kts 153°
2026-04-26 09:41 47.20759 7.71042 37191 ft 454 kts 153°
2026-04-26 09:42 47.15425 7.76049 37203 ft 455 kts 149°
2026-04-26 09:42 47.10108 7.81120 37176 ft 455 kts 150°
2026-04-26 09:43 47.04791 7.86152 37180 ft 455 kts 150°
2026-04-26 09:43 46.99476 7.91169 37194 ft 455 kts 150°
2026-04-26 09:44 46.94154 7.96180 37194 ft 455 kts 150°
2026-04-26 09:44 46.88832 8.01180 37173 ft 455 kts 150°
2026-04-26 09:45 46.83517 8.06160 37180 ft 454 kts 150°
2026-04-26 09:45 46.78225 8.11107 37189 ft 454 kts 150°
2026-04-26 09:46 46.72899 8.16073 37176 ft 454 kts 150°
2026-04-26 09:46 46.67561 8.21040 37183 ft 456 kts 150°
2026-04-26 09:47 46.62213 8.26004 37178 ft 455 kts 150°
2026-04-26 09:47 46.56865 8.30956 37192 ft 456 kts 150°
2026-04-26 09:48 46.51541 8.35876 37177 ft 455 kts 150°
2026-04-26 09:48 46.46170 8.40752 37148 ft 453 kts 155°
2026-04-26 09:49 46.40550 8.44877 37161 ft 454 kts 156°
2026-04-26 09:49 46.34897 8.48962 37145 ft 454 kts 156°
2026-04-26 09:50 46.29236 8.53036 37098 ft 454 kts 156°
2026-04-26 09:50 46.23575 8.57100 37102 ft 454 kts 156°
2026-04-26 09:51 46.17915 8.61153 37109 ft 455 kts 156°
2026-04-26 09:51 46.12279 8.65181 37103 ft 454 kts 156°
2026-04-26 09:52 46.06700 8.69481 37125 ft 456 kts 154°
2026-04-26 09:52 45.98329 8.75962 37103 ft 455 kts 154°
2026-04-26 09:53 45.92743 8.80270 37104 ft 456 kts 154°
2026-04-26 09:53 45.87147 8.84575 37104 ft 456 kts 154°
2026-04-26 09:54 45.81560 8.88863 37082 ft 455 kts 154°
2026-04-26 09:54 45.75963 8.93149 37096 ft 456 kts 154°
2026-04-26 09:55 45.70369 8.97423 37092 ft 456 kts 154°
2026-04-26 09:55 45.64766 9.01695 37112 ft 456 kts 154°
2026-04-26 09:56 45.59203 9.05926 37105 ft 456 kts 154°
2026-04-26 09:56 45.53598 9.10179 37119 ft 456 kts 154°
2026-04-26 09:57 45.47977 9.14435 37129 ft 456 kts 154°
2026-04-26 09:57 45.42364 9.18675 37128 ft 456 kts 154°
2026-04-26 09:58 45.36749 9.22906 37126 ft 457 kts 154°
2026-04-26 09:58 45.31155 9.27114 37121 ft 457 kts 154°
2026-04-26 09:59 45.25533 9.31331 37115 ft 457 kts 154°
2026-04-26 09:59 45.19891 9.35555 37105 ft 458 kts 154°
2026-04-26 10:00 45.14256 9.39763 37106 ft 458 kts 154°
2026-04-26 10:00 45.08618 9.43965 37098 ft 457 kts 154°
2026-04-26 10:01 45.02989 9.48151 36956 ft 453 kts 154°
2026-04-26 10:01 45.00203 9.50220 36395 ft 450 kts 154°
2026-04-26 10:01 44.97436 9.52272 35814 ft 448 kts 154°
2026-04-26 10:02 44.94718 9.54286 35291 ft 445 kts 154°
2026-04-26 10:02 44.91985 9.56307 34807 ft 442 kts 154°
2026-04-26 10:02 44.89261 9.58320 34293 ft 440 kts 154°
2026-04-26 10:02 44.86545 9.60325 33494 ft 443 kts 154°
2026-04-26 10:03 44.83793 9.62353 32569 ft 448 kts 154°
2026-04-26 10:03 44.81015 9.64400 31690 ft 453 kts 154°
2026-04-26 10:03 44.78209 9.66465 30827 ft 457 kts 154°
2026-04-26 10:03 44.75367 9.68554 29935 ft 461 kts 154°
2026-04-26 10:04 44.72549 9.70624 28961 ft 464 kts 154°
2026-04-26 10:04 44.69676 9.72731 27992 ft 467 kts 154°
2026-04-26 10:04 44.66786 9.74848 27052 ft 470 kts 154°
2026-04-26 10:04 44.63877 9.76977 26141 ft 472 kts 154°
2026-04-26 10:05 44.60966 9.79105 25238 ft 473 kts 154°
2026-04-26 10:05 44.58035 9.81245 24384 ft 475 kts 153°
2026-04-26 10:05 44.55096 9.83387 23517 ft 476 kts 153°
2026-04-26 10:05 44.52158 9.85529 22530 ft 476 kts 153°
2026-04-26 10:06 44.49221 9.87666 21730 ft 474 kts 153°
2026-04-26 10:06 44.46312 9.89780 21124 ft 467 kts 153°
2026-04-26 10:06 44.43445 9.91861 20526 ft 460 kts 153°
2026-04-26 10:06 44.40626 9.93905 19984 ft 453 kts 153°
2026-04-26 10:07 44.37845 9.95921 19474 ft 446 kts 152°
2026-04-26 10:07 44.35113 9.97898 18971 ft 440 kts 152°
2026-04-26 10:07 44.32441 9.99830 18509 ft 434 kts 152°
2026-04-26 10:07 44.29776 10.01756 17966 ft 429 kts 152°
2026-04-26 10:08 44.27144 10.03655 17425 ft 423 kts 152°
2026-04-26 10:08 44.24540 10.05532 16897 ft 418 kts 152°
2026-04-26 10:08 44.21944 10.07317 16409 ft 413 kts 156°
2026-04-26 10:08 44.19306 10.08838 15990 ft 406 kts 157°
2026-04-26 10:09 44.16721 10.10350 15593 ft 400 kts 156°
2026-04-26 10:09 44.14184 10.11849 15224 ft 394 kts 156°
2026-04-26 10:09 44.11687 10.13332 14907 ft 386 kts 155°
2026-04-26 10:09 44.09234 10.14787 14664 ft 377 kts 156°
2026-04-26 10:10 44.06850 10.16202 14452 ft 368 kts 155°
2026-04-26 10:10 44.04525 10.17581 14276 ft 359 kts 155°
2026-04-26 10:10 44.02260 10.18923 14080 ft 349 kts 155°
2026-04-26 10:10 44.00051 10.20230 13899 ft 340 kts 155°
2026-04-26 10:11 43.97906 10.21499 13718 ft 330 kts 155°
2026-04-26 10:11 43.95796 10.22648 13578 ft 322 kts 162°
2026-04-26 10:11 43.93641 10.23304 13461 ft 313 kts 171°
2026-04-26 10:11 43.91523 10.23537 13342 ft 304 kts 178°
2026-04-26 10:12 43.89442 10.23407 13190 ft 296 kts 185°
2026-04-26 10:12 43.87412 10.22919 12835 ft 297 kts 193°
2026-04-26 10:12 43.85443 10.22077 12527 ft 295 kts 200°
2026-04-26 10:12 43.83570 10.20900 12151 ft 296 kts 207°
2026-04-26 10:13 43.81824 10.19409 11842 ft 294 kts 216°
2026-04-26 10:13 43.80242 10.17649 11548 ft 291 kts 220°
2026-04-26 10:13 43.78624 10.15972 11260 ft 289 kts 212°
2026-04-26 10:13 43.76888 10.14580 10898 ft 289 kts 206°
2026-04-26 10:14 43.75072 10.13436 10643 ft 285 kts 201°
2026-04-26 10:14 43.73194 10.12549 10321 ft 285 kts 195°
2026-04-26 10:14 43.71275 10.11927 10021 ft 283 kts 189°
2026-04-26 10:14 43.69332 10.11569 9645 ft 279 kts 184°
2026-04-26 10:15 43.67415 10.11467 9109 ft 278 kts 181°
2026-04-26 10:15 43.65514 10.11121 8614 ft 275 kts 192°
2026-04-26 10:15 43.63657 10.10525 8122 ft 272 kts 193°
2026-04-26 10:15 43.61819 10.09923 7667 ft 269 kts 193°
2026-04-26 10:16 43.59996 10.09756 7383 ft 258 kts 173°
2026-04-26 10:16 43.58265 10.10195 7147 ft 247 kts 169°
2026-04-26 10:16 43.56613 10.10691 6904 ft 237 kts 168°
2026-04-26 10:16 43.55030 10.11186 6601 ft 231 kts 168°
2026-04-26 10:17 43.53498 10.11846 6137 ft 231 kts 150°
2026-04-26 10:17 43.52324 10.13247 5911 ft 223 kts 132°
2026-04-26 10:17 43.51634 10.15125 5478 ft 224 kts 100°
2026-04-26 10:17 43.51730 10.17228 5001 ft 219 kts 76°
2026-04-26 10:18 43.52142 10.19227 4491 ft 215 kts 73°
2026-04-26 10:18 43.52566 10.21188 3960 ft 213 kts 73°
2026-04-26 10:18 43.53049 10.23083 3532 ft 205 kts 58°
2026-04-26 10:18 43.53960 10.24581 3277 ft 205 kts 38°
2026-04-26 10:19 43.55093 10.25773 3014 ft 205 kts 34°
2026-04-26 10:19 43.56212 10.26902 2787 ft 193 kts 34°
2026-04-26 10:19 43.57267 10.27983 2508 ft 186 kts 35°
2026-04-26 10:19 43.58296 10.29038 2254 ft 183 kts 36°
2026-04-26 10:20 43.59295 10.30065 2061 ft 176 kts 36°
2026-04-26 10:20 43.59943 10.30732 1832 ft 173 kts 36°
2026-04-26 10:20 43.61208 10.32035 1572 ft 166 kts 36°
2026-04-26 10:20 43.62105 10.32958 1356 ft 158 kts 36°
2026-04-26 10:21 43.62682 10.33552 1207 ft 154 kts 35°
2026-04-26 10:21 43.63829 10.34733 914 ft 153 kts 36°
2026-04-26 10:21 43.64672 10.35602 737 ft 153 kts 37°
2026-04-26 10:21 43.65521 10.36479 510 ft 152 kts 37°
2026-04-26 10:22 43.66387 10.37367 312 ft 154 kts 37°
2026-04-26 10:22 43.66957 10.37959 156 ft 150 kts 37°
2026-04-26 10:22 43.67779 10.38810 23 ft 141 kts 38°
2026-04-26 10:22 43.68440 10.39493 23 ft 94 kts 38°
2026-04-26 10:23 43.68839 10.39904 21 ft 54 kts 36°
2026-04-26 10:23 43.69123 10.40198 22 ft 41 kts 37°
2026-04-26 10:23 43.69283 10.40288 24 ft 16 kts 320°
2026-04-26 10:23 43.69356 10.40152 25 ft 17 kts 308°
2026-04-26 10:24 43.69466 10.40090 22 ft 19 kts 351°
2026-04-26 10:24 43.69613 10.40061 18 ft 23 kts 351°
2026-04-26 10:24 43.69718 10.40026 17 ft 9 kts 355°
2026-04-26 10:24 43.69747 10.40030 17 ft 0 kts 13°